Home > Time Zones > World Clock > Weather > France > Caen > Past weeks

Flag for France Weather past 2 weeks in Caen, France

Now
48 °F

Low clouds.


Feels Like: 41 °F
Forecast: 46 / 53 °F
Wind: 20 mph from South

Location: Caen Airport

Current Time: Feb 28, 2015 at 4:01:04 PM

Latest Report: Feb 28, 2015 at 3:30 PM


Visibility: N/A

Pressure: 29.86 "Hg

Humidity: 87%

Dew point: 45 °F

Location of CaenLocation

Historic Weather in Caen — Graph

°F

Caen temperature yesterday

Maximum temperature yesterday: 46 °F (at 11:30 AM)
Minimum temperature yesterday: 36 °F (at 10:00 PM)
Average temperature yesterday: 42 °F

Past Weeks' High & Low Weather Summary

 TemperatureHumidityPressure
High54 °F (Feb 25, 3:00 PM)100% (Feb 14, 9:00 PM)30.77 "Hg (Feb 14, 9:00 PM)
Low27 °F (Feb 18, 8:00 AM)41% (Feb 18, 4:30 PM)29.42 "Hg (Feb 23, 2:30 AM)
Average43 °F85%29.97 "Hg
* Reported Feb 13 3:30 PM — Feb 28 3:00 PM, Caen, Weather by CustomWeather, © 2015

Note: Actual official high and low records may vary slightly from our data, if they occured in-between our weather recording intervals... More about our weather records

Advertising

Caen weather history for previous 24 hours

 ConditionsComfort  
Time TempWeatherWind HumidityBarometerVisibility
3:00 PM
Sat, Feb 28
48 °FOvercast.20 mph87%29.86 "HgN/A
2:30 PM48 °FOvercast.22 mph82%29.89 "HgN/A
2:00 PM48 °FOvercast.23 mph82%29.89 "HgN/A
1:30 PM48 °FOvercast.22 mph82%29.89 "HgN/A
1:00 PM48 °FOvercast.22 mph82%29.92 "HgN/A
12:30 PM48 °FOvercast.23 mph82%29.92 "HgN/A
12:00 PM46 °FOvercast.20 mph87%29.95 "HgN/A
11:30 AM46 °FOvercast.22 mph82%29.95 "HgN/A
11:00 AM45 °FOvercast.22 mph87%29.98 "HgN/A
10:30 AM45 °FOvercast.22 mph87%29.98 "HgN/A
10:00 AM45 °FOvercast.22 mph87%29.98 "HgN/A
9:30 AM45 °FOvercast.18 mph87%29.98 "HgN/A
9:00 AM43 °FMostly cloudy.17 mph93%30.01 "HgN/A
8:30 AM43 °FMore clouds than sun.18 mph87%30.01 "HgN/A
8:00 AM43 °FOvercast.16 mph87%30.01 "HgN/A
7:30 AM43 °FOvercast.15 mph87%30.01 "HgN/A
7:00 AM41 °FPartly cloudy.12 mph87%30.04 "HgN/A
6:30 AM41 °FMostly cloudy.12 mph87%30.04 "HgN/A
6:00 AM41 °FOvercast.12 mph87%30.04 "HgN/A
5:30 AM41 °FMostly cloudy.10 mph81%30.04 "HgN/A
5:00 AM39 °FOvercast.10 mph87%30.07 "HgN/A
4:30 AM39 °FClear.12 mph87%30.07 "HgN/A
4:00 AM39 °FOvercast.12 mph87%30.07 "HgN/A
3:30 AM39 °FOvercast.10 mph81%30.09 "HgN/A
3:00 AM39 °FClear.9 mph81%30.09 "HgN/A
2:30 AM37 °FClear.8 mph81%30.12 "HgN/A
2:00 AM37 °FClear.12 mph81%30.12 "HgN/A
1:30 AM36 °FClear.10 mph81%30.12 "HgN/A
1:00 AM34 °FClear.7 mph87%30.15 "HgN/A
12:30 AM34 °FPassing clouds.5 mph87%30.15 "HgN/A
12:00 AM34 °FClear.6 mph87%30.15 "HgN/A
11:30 PM
Fri, Feb 27
36 °FClear.7 mph87%30.18 "HgN/A
11:00 PM36 °FClear.8 mph81%30.18 "HgN/A
10:30 PM36 °FClear.6 mph87%30.18 "HgN/A
10:00 PM36 °FClear.6 mph87%30.18 "HgN/A
9:30 PM37 °FClear.8 mph87%30.18 "HgN/A
9:00 PM37 °FClear.7 mph87%30.21 "HgN/A
8:30 PM39 °FClear.5 mph75%30.21 "HgN/A
8:00 PM41 °FClear.2 mph76%30.21 "HgN/A
7:30 PM41 °FClear.No wind81%30.21 "HgN/A
7:00 PM41 °FClear.2 mph76%30.21 "HgN/A
6:30 PM43 °FPassing clouds.No wind76%30.21 "HgN/A
6:00 PM45 °FClear.1 mph71%30.18 "HgN/A
5:30 PM46 °FClear.3 mph66%30.18 "HgN/A
5:00 PM46 °FPartly sunny.5 mph66%30.18 "HgN/A
4:30 PM46 °FBroken clouds.6 mph66%30.18 "HgN/A
4:00 PM46 °FBroken clouds.6 mph62%30.18 "HgN/A
Weather by CustomWeather, © 2015

See weather overviewHow to use our weather pages